Oklahoma City, OK

2:38 AM CST on February 25, 2017 (GMT -0600)
Will Rogers World

Weather History for KOKC - December, 2013

Change the Weather History Date:

Friday, December 13, 2013

  Actual Average Record
Temperature  
Mean Temperature 46 °F 41 °F  
Max Temperature 53 °F 51 °F 79 °F (1921)
Min Temperature 38 °F 31 °F 4 °F (1917)
Degree Days  
Heating Degree Days 19 24  
Month to date heating degree days 412 296  
Since 1 July heating degree days 1072 895  
Moisture  
Dew Point 36 °F    
Average Humidity 74    
Maximum Humidity 89    
Minimum Humidity 59    
Precipitation  
Precipitation 0.01 in 0.06 in 1.80 in (1984)
Month to date precipitation 0.23 0.84  
Year to date precipitation 51.75 35.48  
Snow  
Snow 0.00 in 0.10 in 1.80 in (1985)
Month to date snowfall 4.1 0.7  
Since 1 July snowfall 4.7 1.1  
Snow Depth 0.00 in    
Sea Level Pressure  
Sea Level Pressure 29.91 in    
Wind  
Wind Speed 14 mph (SSE)    
Max Wind Speed 29 mph    
Max Gust Speed 33 mph    
Visibility 6 miles    
Events Fog , Rain    
T = Trace of Precipitation, MM = Missing Value Source: NWS Daily Summary

Daily Weather History Graph

Daily Weather History Graph

Search for Another Location

Airport or City:

Trip Planner

Search our weather history database for the weather conditions in past years. The results will help you decide how hot, cold, wet, or windy it might be!

Date:

Astronomy

Dec. 13, 2013 Rise Set
Actual Time 7:30 AM CST 5:18 PM CST
Civil Twilight 7:02 AM CST 5:46 PM CST
Nautical Twilight 6:30 AM CST 6:18 PM CST
Astronomical Twilight 5:59 AM CST 6:49 PM CST
Moon 2:57 PM CST (12/13) 4:00 AM CST (12/13)
Length of Visible Light 10h 44m
Length of Day
9h 47m
Waxing Gibbous, 88% of the Moon is Illuminated
Dec 13
Waxing Gibbous
Dec 17
Full
Dec 25
Last Quarter
Jan 1
New
Jan 7
First Quarter

Hourly Weather History & Observations

Time (CST) Temp. Windchill Dew Point Humidity Pressure Visibility Wind Dir Wind Speed Gust Speed Precip Events Conditions
12:52 AM 37.9 °F 29.6 °F 30.0 °F 73% 30.18 in 9.0 mi South 13.8 mph - 0.00 in   Overcast
1:52 AM 39.0 °F 30.3 °F 30.0 °F 70% 30.17 in 8.0 mi South 16.1 mph - N/A   Overcast
2:52 AM 39.9 °F 31.4 °F 30.0 °F 68% 30.13 in 8.0 mi South 16.1 mph - N/A   Overcast
3:52 AM 39.9 °F 31.8 °F 30.9 °F 70% 30.10 in 8.0 mi South 15.0 mph - N/A   Overcast
4:52 AM 39.9 °F 31.4 °F 32.0 °F 73% 30.08 in 8.0 mi South 16.1 mph - 0.00 in Rain Light Rain
5:52 AM 39.9 °F 31.8 °F 33.1 °F 77% 30.04 in 6.0 mi South 15.0 mph - 0.00 in Rain Light Rain
6:52 AM 39.0 °F 31.4 °F 33.1 °F 79% 30.04 in 7.0 mi South 12.7 mph - 0.01 in   Overcast
7:52 AM 37.9 °F 30.0 °F 34.0 °F 86% 30.02 in 5.0 mi South 12.7 mph - N/A   Overcast
8:52 AM 39.0 °F 30.6 °F 35.1 °F 86% 30.00 in 3.0 mi South 15.0 mph - N/A   Overcast
9:01 AM 39.2 °F 30.8 °F 35.6 °F 87% 29.98 in 3.0 mi South 15.0 mph - N/A   Overcast
9:19 AM 39.2 °F 29.8 °F 35.6 °F 87% 29.97 in 3.0 mi South 18.4 mph 25.3 mph N/A   Overcast
9:52 AM 39.9 °F 31.1 °F 36.0 °F 86% 29.97 in 3.0 mi South 17.3 mph 26.5 mph N/A   Overcast
10:52 AM 42.1 °F 33.3 °F 37.0 °F 82% 29.94 in 3.0 mi South 19.6 mph 29.9 mph N/A   Haze
11:35 AM 44.6 °F 36.1 °F 37.4 °F 76% 29.90 in 3.0 mi South 21.9 mph 27.6 mph N/A   Haze
11:52 AM 46.9 °F - 37.9 °F 71% 29.89 in 7.0 mi South 27.6 mph 33.4 mph N/A   Mostly Cloudy
12:52 PM 52.0 °F - 39.0 °F 61% 29.82 in 10.0 mi South 19.6 mph 26.5 mph N/A   Scattered Clouds
1:52 PM 52.0 °F - 37.9 °F 59% 29.78 in 10.0 mi South 25.3 mph 32.2 mph N/A   Scattered Clouds
2:52 PM 52.0 °F - 37.9 °F 59% 29.75 in 10.0 mi South 21.9 mph 28.8 mph N/A   Scattered Clouds
3:52 PM 48.9 °F - 37.0 °F 64% 29.75 in 10.0 mi South 15.0 mph - N/A   Mostly Cloudy
4:52 PM 46.9 °F - 37.0 °F 68% 29.75 in 10.0 mi South 13.8 mph - N/A   Mostly Cloudy
5:52 PM 46.0 °F 42.5 °F 37.9 °F 73% 29.78 in 10.0 mi South 6.9 mph - 0.00 in Rain Light Rain
6:52 PM 43.0 °F 37.7 °F 39.0 °F 86% 29.79 in 6.0 mi SE 9.2 mph - 0.00 in   Overcast
7:52 PM 42.1 °F 38.4 °F 37.9 °F 85% 29.80 in 5.0 mi SE 5.8 mph - N/A   Overcast
8:13 PM 42.8 °F 39.3 °F 37.4 °F 81% 29.80 in 4.0 mi SSE 5.8 mph - N/A   Overcast
8:31 PM 39.2 °F 35.0 °F 37.4 °F 93% 29.80 in 4.0 mi SE 5.8 mph - N/A   Overcast
8:52 PM 41.0 °F 37.1 °F 37.9 °F 89% 29.82 in 4.0 mi SE 5.8 mph - N/A   Overcast
9:52 PM 42.1 °F 39.2 °F 39.0 °F 89% 29.82 in 3.0 mi SSE 4.6 mph - N/A   Overcast
10:27 PM 42.8 °F 39.3 °F 39.2 °F 87% 29.81 in 2.5 mi SSE 5.8 mph - N/A   Overcast
10:40 PM 42.8 °F 40.1 °F 39.2 °F 87% 29.81 in 1.5 mi SE 4.6 mph - N/A   Overcast
10:52 PM 42.1 °F 40.2 °F 39.9 °F 92% 29.83 in 1.0 mi SE 3.5 mph - N/A   Overcast
11:29 PM 42.8 °F 41.1 °F 39.2 °F 87% 29.82 in 0.8 mi ESE 3.5 mph - N/A   Overcast
11:52 PM 42.1 °F - 39.9 °F 92% 29.83 in 0.5 mi Calm Calm - N/A Fog Fog